Home > Weather > Växjö > Past weeks

Flag for Sweden Weather for the Past 2 Weeks in Växjö, Sweden

Now
36 °F

Partly cloudy.


Feels Like: 29 °F
Forecast: 31 / 37 °F
Wind: 9 mph from West

Location: Vaxjo Airport

Current Time: Feb 10, 2016 at 5:44:16 PM

Latest Report: Feb 10, 2016 at 5:20 PM


Visibility: N/A

Pressure: 29.12 "Hg

Humidity: 93%

Dew point: 34 °F

Location of VäxjöLocation

Historic Weather in Växjö — Graph

°F

Växjö Temperature Yesterday

Maximum temperature yesterday: 41 °F (at 6:50 AM)
Minimum temperature yesterday: 36 °F (at 9:20 PM)
Average temperature yesterday: 39 °F

High & Low Weather Summary for the Past Weeks

 TemperatureHumidityPressure
High48 °F (Jan 28, 12:50 AM)100% (Jan 26, 8:20 PM)29.98 "Hg (Jan 26, 8:20 PM)
Low25 °F (Feb 5, 3:20 AM)60% (Feb 4, 3:50 PM)28.80 "Hg (Feb 10, 6:20 AM)
Average38 °F90%29.44 "Hg
* Reported Jan 26 4:20 PM — Feb 10 4:20 PM, Växjö, Weather by CustomWeather, © 2016

Note: Actual official high and low records may vary slightly from our data, if they occured in-between our weather recording intervals... More about our weather records

Advertising

Växjö Weather History for the Previous 24 Hours

 ConditionsComfort  
Time TempWeatherWind HumidityBarometerVisibility
4:20 PM
Wed, Feb 10
36 °FBroken clouds.12 mph93%29.09 "HgN/A
3:50 PM36 °FPartly sunny.12 mph93%29.06 "HgN/A
3:20 PM36 °FPartly sunny.12 mph93%29.06 "HgN/A
2:50 PM36 °FFog.12 mph93%29.03 "Hg5 mi
2:20 PM36 °FBroken clouds.13 mph93%29.00 "HgN/A
1:50 PM36 °FLight rain. Broken clouds.12 mph93%29.00 "HgN/A
1:20 PM36 °FRain. Low clouds.10 mph93%28.97 "Hg3 mi
12:50 PM36 °FFog.12 mph93%28.94 "Hg3 mi
12:20 PM36 °FFog.12 mph93%28.91 "Hg3 mi
11:50 AM36 °FFog.12 mph93%28.88 "Hg4 mi
11:20 AM37 °FPartly sunny.14 mph93%28.88 "HgN/A
10:50 AM39 °FRain. Mostly cloudy.12 mph93%28.85 "Hg4 mi
10:20 AM39 °FRain. Low clouds.9 mph100%28.85 "Hg4 mi
9:50 AM39 °FDrizzle. Partly sunny.7 mph100%28.82 "Hg2 mi
9:20 AM39 °FPartly sunny.7 mph100%28.80 "HgN/A
8:50 AM39 °FDrizzle. Low clouds.3 mph100%28.80 "Hg6 mi
8:20 AM37 °FDrizzle. Mostly cloudy.No wind100%28.80 "Hg4 mi
7:50 AM37 °FRain. Low clouds.3 mph93%28.80 "Hg4 mi
7:20 AM36 °FLight rain. Low clouds.5 mph100%28.80 "Hg5 mi
6:50 AM36 °FRain. Low clouds.3 mph100%28.80 "Hg2 mi
6:20 AM36 °FLight rain. Low clouds.5 mph100%28.80 "Hg5 mi
5:50 AM36 °FRain. Low clouds.8 mph93%28.82 "Hg4 mi
5:20 AM34 °FLight rain. Low clouds.12 mph100%28.82 "Hg5 mi
4:50 AM34 °FDrizzle. Low clouds.9 mph100%28.82 "HgN/A
4:20 AM34 °FLight snow. Low clouds.9 mph100%28.85 "Hg2 mi
3:50 AM36 °FRain. Mostly cloudy.7 mph93%28.88 "Hg2 mi
3:20 AM36 °FLight rain. Mostly cloudy.8 mph100%28.88 "HgN/A
2:20 AM36 °FPartly cloudy.6 mph100%28.94 "HgN/A
1:50 AM36 °FLight rain. Partly cloudy.6 mph100%28.97 "Hg4 mi
1:20 AM36 °FRain. Passing clouds.6 mph93%28.97 "Hg3 mi
12:50 AM36 °FPartly cloudy.5 mph93%29.00 "HgN/A
12:20 AM36 °FPassing clouds.5 mph93%29.00 "HgN/A
11:50 PM
Tue, Feb 9
36 °FPartly cloudy.7 mph93%29.03 "HgN/A
11:20 PM36 °FOvercast.5 mph93%29.06 "Hg6 mi
10:20 PM36 °FPassing clouds.5 mph93%29.06 "HgN/A
9:50 PM36 °FPartly cloudy.6 mph93%29.09 "HgN/A
9:20 PM36 °FMostly cloudy.6 mph93%29.09 "HgN/A
8:50 PM37 °FPassing clouds.8 mph87%29.09 "HgN/A
8:20 PM37 °FClear.7 mph93%29.09 "Hg10 mi
7:50 PM37 °FPassing clouds.7 mph93%29.09 "HgN/A
7:20 PM39 °FOvercast.10 mph87%29.09 "HgN/A
6:50 PM39 °FPartly cloudy.13 mph93%29.09 "HgN/A
6:20 PM39 °FPassing clouds.12 mph93%29.09 "HgN/A
5:50 PM39 °FMostly cloudy.12 mph93%29.09 "HgN/A
5:20 PM39 °FPartly cloudy.14 mph93%29.09 "HgN/A
Weather by CustomWeather, © 2016

See weather overviewHow to use our weather pages